Weather in Toropovo

Russia / Vologda Oblast     59°29′53″N   35°39′40″E
temp.,
°C
wind,
m/s
gust,
m/s
humid.,
%
clouds,
%
prec.,
mm/h
press.,
hPa
HPBL,
m
19 april, mon
mon1900:00+4ne3976100 0.0 1030351
03:00+2ene387773 0.0 1030235
06:000ene39824 0.0 1030256
09:00+5e47595 0.0 1030694
12:00+8e56415 0.0 10301449
15:00+10e46365 0.0 10291658
18:00+9e46415 0.0 10291611
21:00+4e310595 0.0 1030264
20 april, tue
tue2000:00+2e311726 0.0 1030288
03:000e39810 0.0 1029253
06:00−1e39815 0.0 1029301
09:00+4ese49475 0.0 1028896
12:00+8ese583788 0.0 10261462
15:00+9ese5843100 0.0 10241752
18:00+8ese4105196 0.0 10211607
21:00+4ese2669100 0.0 1021154
21 april, wed
wed2100:00+3ene3878100 0.0 1018257
03:00+3ene41068100 0.0 1014553
06:00+2ene51270100 0.0 1011652
09:00+1ene51295100 1.8 1008702
12:00+2e41094100 1.7 1004756
15:00+2e3997100 2.4 1003539
18:00+2ese2699100 0.7 1001376
21:00+1s2598100 1.8 1002247
22 april, thu
thu2200:00+1ssw3997100 0.3 1003670
03:00+1ssw3998100 0.4 1004753
06:00+1ssw4998100 0.6 1005781
09:00+1ssw4997100 1.4 1007424
12:00+2sw31097100 1.4 1009642
15:00+7wsw3780100 1.8 1010979
18:00+8sw248021 0.1 1011214
21:00+3s249691 0.1 101347
23 april, fri
fri2300:00+2sse26975 0.0 101391
03:00+2sse269815 0.0 1012105
06:00+2se2898100 0.0 1012154
09:00+9sse498638 0.0 1010493
12:00+13sse51169100 0.0 10091317
15:00+13s6137396 0.4 10071633
18:00+11ssw278475 0.7 1007674
21:00+7wsw4995100 2.4 1006806